Regional Weather Roundup
Issued by NWS

Home | Current Version | Previous Version | Graphics & Text | Print | Product List | Glossary On
Versions: 1 2 3 4 5 6 7 8 9 10 11 12 13 14 15 16 17 18 19 20 21 22 23 24 25 26 27 28 29 30 31 32 33 34 35 36 37 38 39 40 41 42 43 44 45 46 47 48 49 50
000
ASUS45 KCYS 300510
RWRWY

WYOMING REGIONAL WEATHER ROUNDUP
NATIONAL WEATHER SERVICE CHEYENNE WY
1100 PM MDT FRI MAY 29 2015

NOTE:  "FAIR" INDICATES FEW OR NO CLOUDS BELOW 12,000 FEET
WITH NO SIGNIFICANT WEATHER AND/OR OBSTRUCTIONS TO VISIBILITY.

WYZ001-300600-
YELLOWSTONE NATIONAL PARK

CITY           SKY/WX    TMP DP  RH WIND       PRES   REMARKS
LK YELLOWSTONE   N/A     38  36  92 CALM      30.32R
W YELLOWSTONE  NOT AVBL

$$
WYZ002>013-054>058-071-098>099-300600-
NORTHERN WYOMING

CITY           SKY/WX    TMP DP  RH WIND       PRES   REMARKS
JACKSON        FAIR      48  45  87 NE5       30.25R
CODY           FAIR      52  48  87 CALM      30.19S
GREYBULL       FAIR      59  44  57 SE5       30.16S
WORLAND        FAIR      55  45  68 S14       30.18S
SHERIDAN       FAIR      45  43  93 S5        30.20F
BUFFALO          N/A    N/A N/A N/A MISG      30.24F
GILLETTE       FAIR      42  37  82 CALM      30.25F
HULETT         FAIR      41  36  81 S8        30.28F
NEWCASTLE      CLOUDY    45  43  93 SE9       30.30S

$$
WYZ014>020-022>026-101>103-300600-
CENTRAL WYOMING

CITY           SKY/WX    TMP DP  RH WIND       PRES   REMARKS
BIG PINEY      MOCLDY    50  43  77 SE13      30.32R
PINEDALE       FAIR      45  41  87 SE5       30.33R
DUBOIS         CLOUDY    45  41  87 CALM      30.32R
LANDER         FAIR      51  45  79 SW7       30.24S
RIVERTON       FAIR      50  45  83 N5        30.26S
CASPER         FAIR      42  40  92 NW5       30.28F
DOUGLAS        FAIR      45  42  89 CALM      30.28F

$$
WYZ021-027>030-104>119-300600-
SOUTHERN WYOMING

CITY           SKY/WX    TMP DP  RH WIND       PRES   REMARKS
EVANSTON       FAIR      53  39  59 E7        30.28S
KEMMERER       FAIR      52  36  54 E5        30.30F
FORT BRIDGER   CLEAR     50  43  76 S10       30.32R
ROCK SPRINGS   FAIR      50  41  71 SE8       30.30R
DIXON          FAIR      45  42  88 NE6       30.33F
RAWLINS        FAIR      43  38  82 E6        30.32S
SARATOGA       FAIR      43  39  87 S7        30.34S
LARAMIE        FAIR      40  37  89 S6        30.34F
CHEYENNE       FAIR      44  42  93 CALM      30.33F
TORRINGTON     CLOUDY    47  45  93 SE6       30.29S
PINE BLUFFS    CLOUDY    46  45  93 CALM      30.33S

$$


USA.gov is the U.S. government's official web portal to all federal, state and local government web resources and services.